SYRACUSE 3A

Last updated on Tue Jul 01 2025 00:02:44 GMT+0000 (Coordinated Universal Time)

1 28885U 05041B 25181.50076522 .00000128 00000+0 00000+0 0 9994 2 28885 3.7453 80.2562 0002800 25.6404 14.9830 1.00273682 72226
UTC large
Height (km)
Speed (km/s)
/
Latitude / Longitude
Inclination (degrees)
Orbital Period (minutes)
Azimuth
Elevation
Range (km)
Doppler Factor

Next 0 passes for location: London (51.5072 / 0.1276)

Sorry there are no passes over London.